Weather History for Dubrovnik, Croatia

Change the Weather History Date:

Monday, September 16, 2013

  Actual Average (LYTV) Record (LYTV)
Temperature  
Mean Temperature 66 °F -  
Max Temperature 71 °F 77 °F 89 °F (2011)
Min Temperature 61 °F 56 °F 48 °F (1996)
Cooling Degree Days 1    
Growing Degree Days 16 (Base 50)    
Moisture  
Dew Point 60 °F    
Average Humidity 83    
Maximum Humidity 100    
Minimum Humidity 62    
Precipitation  
Precipitation 0.12 in - - ()
Sea Level Pressure  
Sea Level Pressure 29.74 in    
Wind  
Wind Speed 8 mph ()    
Max Wind Speed 18 mph    
Max Gust Speed -    
Visibility 7.3 miles    
Events Rain , Thunderstorm    
Averages and records for this station are not official NWS values.
T = Trace of Precipitation, MM = Missing Value Source: Averaged Metar Reports

Daily Weather History Graph

Daily Weather History Graph

Search for Another Location

Airport:

Trip Planner

Search our weather history database for the weather conditions in past years. The results will help you decide how hot, cold, wet, or windy it might be!

Date:

Astronomy

Sep. 16, 2013 Rise Set
Actual Time 6:27 AM CEST 6:54 PM CEST
Civil Twilight 5:59 AM CEST 7:23 PM CEST
Nautical Twilight 5:26 AM CEST 7:56 PM CEST
Astronomical Twilight 4:51 AM CEST 8:30 PM CEST
Moon 4:54 PM CEST (9/16) 2:49 AM CEST (9/16)
Length of Visible Light 13h 23m
Length of Day
12h 27m
Waxing Gibbous, 88% of the Moon is Illuminated
Sep 16
Waxing Gibbous
Sep 19
Full
Sep 27
Last Quarter
Oct 5
New
Oct 12
First Quarter

Hourly Weather History & Observations

Time (CEST) Temp. Dew Point Humidity Pressure Visibility Wind Dir Wind Speed Gust Speed Precip Events Conditions
12:00 AM 68.0 °F 55.4 °F 64% 29.86 in 6.2 mi East 10.4 mph - N/A   Scattered Clouds
12:30 AM 68.0 °F 57.2 °F 68% 29.86 in 6.2 mi East 10.4 mph - N/A   Scattered Clouds
1:00 AM 68.0 °F 57.2 °F 68% 29.83 in 6.2 mi East 9.2 mph - N/A   Scattered Clouds
1:30 AM 68.0 °F 57.2 °F 68% 29.83 in 6.2 mi East 9.2 mph - N/A   Scattered Clouds
2:00 AM 67 °F 57 °F 62% 29.80 in 16 mi East 11.2 mph - -   Scattered Clouds
2:00 AM 66.2 °F 57.2 °F 73% 29.80 in 6.2 mi East 11.5 mph - N/A   Scattered Clouds
2:30 AM 66.2 °F 57.2 °F 73% 29.80 in 6.2 mi East 11.5 mph - N/A   Partly Cloudy
3:00 AM 68.0 °F 57.2 °F 68% 29.77 in 6.2 mi East 12.7 mph - N/A   Partly Cloudy
3:30 AM 68.0 °F 59.0 °F 73% 29.77 in 6.2 mi East 10.4 mph - N/A   Partly Cloudy
4:00 AM 68.0 °F 59.0 °F 73% 29.74 in 6.2 mi East 12.7 mph - N/A   Partly Cloudy
4:30 AM 62.6 °F 60.8 °F 94% 29.74 in 3.1 mi East 18.4 mph - N/A Rain , Thunderstorm Thunderstorms and Rain
5:00 AM 61 °F 59 °F 92% 29.74 in 4 mi Calm Calm - - Thunderstorm Light Thunderstorm
5:00 AM 60.8 °F 60.8 °F 100% 29.74 in 6.2 mi East 15.0 mph - N/A Rain , Thunderstorm Light Thunderstorms and Rain
5:30 AM 60.8 °F 60.8 °F 100% 29.71 in 6.2 mi ENE 12.7 mph - N/A Rain Light Rain
6:00 AM 62.6 °F 60.8 °F 94% 29.71 in 6.2 mi ENE 10.4 mph - N/A   Mostly Cloudy
6:30 AM 62.6 °F 59.0 °F 88% 29.71 in 6.2 mi East 9.2 mph - N/A Rain , Thunderstorm Thunderstorms and Rain
7:00 AM 62.6 °F 60.8 °F 94% 29.71 in 6.2 mi South 4.6 mph - N/A Rain , Thunderstorm Light Thunderstorms and Rain
7:30 AM 62.6 °F 59.0 °F 88% 29.71 in 6.2 mi ENE 8.1 mph - N/A   Scattered Clouds
8:00 AM 63 °F 59 °F 83% 29.71 in 19 mi ENE 8.9 mph - - Rain Light Rain
8:00 AM 62.6 °F 59.0 °F 88% 29.71 in 6.2 mi ENE 8.1 mph - N/A   Mostly Cloudy
8:30 AM 64.4 °F 59.0 °F 83% 29.71 in 6.2 mi ENE 6.9 mph - N/A   Mostly Cloudy
9:00 AM 64.4 °F 60.8 °F 88% 29.71 in 6.2 mi ESE 3.5 mph - N/A   Mostly Cloudy
9:30 AM 64.4 °F 60.8 °F 88% 29.71 in 6.2 mi ENE 3.5 mph - N/A   Mostly Cloudy
10:00 AM 66.2 °F 60.8 °F 83% 29.71 in 6.2 mi NW 5.8 mph - N/A   Mostly Cloudy
10:30 AM 64.4 °F 60.8 °F 88% 29.74 in 6.2 mi WNW 4.6 mph - N/A Rain Light Rain
11:00 AM 63 °F 60 °F 88% 29.75 in 2 mi ESE 6.7 mph - - Rain Rain
11:00 AM 62.6 °F 60.8 °F 94% 29.74 in 2.5 mi East 5.8 mph - N/A Rain Rain
11:30 AM 64.4 °F 60.8 °F 88% 29.74 in 5.0 mi East 6.9 mph - N/A Rain Light Rain
12:00 PM 66.2 °F 60.8 °F 83% 29.74 in 6.2 mi ESE 6.9 mph - N/A   Scattered Clouds
12:30 PM 66.2 °F 62.6 °F 88% 29.74 in 6.2 mi East 6.9 mph - N/A   Scattered Clouds
1:00 PM 66.2 °F 62.6 °F 88% 29.74 in 6.2 mi SSE 5.8 mph - N/A   Scattered Clouds
1:30 PM 68.0 °F 62.6 °F 83% 29.74 in 6.2 mi SSE 5.8 mph - N/A   Scattered Clouds
2:00 PM 70 °F 63 °F 72% 29.73 in 19 mi SE 2.2 mph - -   Clear
2:00 PM 69.8 °F 64.4 °F 83% 29.74 in 6.2 mi Variable 2.3 mph - N/A   Scattered Clouds
2:30 PM 69.8 °F 62.6 °F 78% 29.74 in 6.2 mi South 10.4 mph - N/A   Scattered Clouds
3:00 PM 69.8 °F 62.6 °F 78% 29.71 in 6.2 mi South 9.2 mph - N/A   Scattered Clouds
3:30 PM 69.8 °F 62.6 °F 78% 29.71 in 6.2 mi SSE 8.1 mph - N/A   Scattered Clouds
4:00 PM 71.6 °F 64.4 °F 78% 29.71 in 6.2 mi South 6.9 mph - N/A   Scattered Clouds
4:30 PM 69.8 °F 60.8 °F 73% 29.71 in 6.2 mi Variable 6.9 mph - N/A   Scattered Clouds
5:00 PM 69 °F 62 °F 72% 29.72 in 19 mi Calm Calm - -   Partly Cloudy
5:00 PM 69.8 °F 60.8 °F 73% 29.71 in 6.2 mi South 5.8 mph - N/A   Scattered Clouds
5:30 PM 68.0 °F 62.6 °F 83% 29.71 in 6.2 mi South 4.6 mph - N/A   Scattered Clouds
6:00 PM 68.0 °F 60.8 °F 78% 29.71 in 6.2 mi South 3.5 mph - N/A   Mostly Cloudy
6:30 PM 68.0 °F 62.6 °F 83% 29.71 in 6.2 mi ENE 3.5 mph - N/A   Scattered Clouds
7:00 PM 68.0 °F 60.8 °F 78% 29.71 in 6.2 mi East 4.6 mph - N/A   Scattered Clouds
7:30 PM 66.2 °F 60.8 °F 83% 29.71 in 6.2 mi East 6.9 mph - N/A   Scattered Clouds
8:00 PM 65 °F 61 °F 84% 29.73 in 16 mi East 8.9 mph - -   Scattered Clouds
8:00 PM 64.4 °F 60.8 °F 88% 29.74 in 6.2 mi East 8.1 mph - N/A   Partly Cloudy
8:30 PM 64.4 °F 60.8 °F 88% 29.74 in 6.2 mi ESE 6.9 mph - N/A   Partly Cloudy
9:00 PM 62.6 °F 60.8 °F 94% 29.74 in - NE 3.5 mph - N/A   Clear
9:30 PM 64.4 °F 60.8 °F 88% 29.74 in - ENE 6.9 mph - N/A   Clear
10:00 PM 64.4 °F 59.0 °F 83% 29.74 in - East 6.9 mph - N/A   Clear
10:30 PM 62.6 °F 59.0 °F 88% 29.74 in - East 6.9 mph - N/A   Clear
11:00 PM 62 °F 60 °F 90% 29.73 in 16 mi ENE 8.9 mph - -  
11:00 PM 62.6 °F 60.8 °F 94% 29.74 in - ENE 9.2 mph - N/A   Clear
11:30 PM 62.6 °F 59.0 °F 88% 29.74 in - East 6.9 mph - N/A   Clear